User: anonymous   Login
Location: San Vito
(41.8833°N, 12.9833°E)
Time: 13:36:30
(UTC+00:00)
Language:

BREEZE-M DEB (TANK) - Orbit

View from above orbital plane
View from above orbital plane
View from above satellite
View from above satellite

Ground track
Ground track

The orbit data is extracted from the following two-line orbital elements,

1 31103U 07009B   20021.17390474 -.00000052 +00000-0 +92162-4 0  9996
2 31103 049.4501 315.9110 5499366 139.0487 279.0802 04.76856864217908
Epoch (UTC): 21 January 2020 04:10:25
Eccentricity: 0.5499366
inclination: 49.4501°
perigee height: 332 km
apogee height: 16731 km
right ascension of ascending node: 315.9110°
argument of perigee: 139.0487°
revolutions per day: 4.76856864
mean anomaly at epoch: 279.0802°
orbit number at epoch: 21790

The dashed part of the orbit path shows where the satellite is in the earth's shadow,  

DLR